FW1404 Weather Reports


Display with metric or nautical units.
time (UTC)temp
F
wind
direction
speed
MPH
gust
MPH
rain 1hr
in
rain 24hr
in
rain mn
in
humidity
%
barometer
mb
20260503213727 64 165 2.0 4.0 0.00 0.00 0.00 50 1010.5
20260503213228 64 165 2.0 4.0 0.00 0.00 0.00 49 1010.4
20260503212726 64 162 2.0 4.0 0.00 0.00 0.00 49 1010.4
20260503212311 65 173 2.0 4.0 0.00 0.00 0.00 47 1010.5
20260503212257 65 172 1.0 4.0 0.00 0.00 0.00 49 1010.5
20260503211224 66 173 2.0 4.0 0.00 0.00 0.00 47 1010.4
20260503210725 66 173 1.0 4.0 0.00 0.00 0.00 46 1010.5
20260503210226 67 177 2.0 4.0 0.00 0.00 0.00 46 1010.5
20260503205724 67 179 2.0 4.0 0.00 0.00 0.00 45 1010.5
20260503205226 68 186 1.0 4.0 0.00 0.00 0.00 45 1010.5
20260503204726 68 186 2.0 6.0 0.00 0.00 0.00 44 1010.5
20260503204511 68 184 2.0 6.0 0.00 0.00 0.00 44 1010.5
20260503203726 69 196 2.0 9.0 0.00 0.00 0.00 43 1010.5
20260503203225 69 172 3.0 9.0 0.00 0.00 0.00 43 1010.5
20260503203008 68 189 3.0 7.0 0.00 0.00 0.00 44 1010.5
20260503202205 68 206 4.0 10.0 0.00 0.00 0.00 45 1010.7
20260503201704 67 194 6.0 10.0 0.00 0.00 0.00 45 1010.7
20260503201203 67 203 4.0 7.0 0.00 0.00 0.00 45 1010.7
20260503200704 67 184 3.0 4.0 0.00 0.00 0.00 45 1010.7
20260503200204 67 187 2.0 5.0 0.00 0.00 0.00 45 1010.7
20260503195705 67 190 3.0 5.0 0.00 0.00 0.00 44 1010.8
20260503195433 67 189 4.0 5.0 0.00 0.00 0.00 44 1010.8
20260503194638 67 191 3.0 5.0 0.00 0.00 0.00 44 1010.9
20260503194422 67 191 4.0 5.0 0.00 0.00 0.00 44 1010.9
20260503193636 68 193 3.0 5.0 0.00 0.00 0.00 44 1010.8
20260503193412 68 191 3.0 5.0 0.00 0.00 0.00 43 1010.8
20260503192636 68 193 3.0 6.0 0.00 0.00 0.00 42 1010.9
20260503192132 69 196 4.0 6.0 0.00 0.00 0.00 42 1010.9
20260503191633 69 200 3.0 5.0 0.00 0.00 0.00 41 1010.9
20260503191133 69 200 3.0 5.0 0.00 0.00 0.00 40 1010.9
20260503190633 70 200 4.0 6.0 0.00 0.00 0.00 40 1010.9
20260503190133 70 200 4.0 6.0 0.00 0.00 0.00 39 1010.9
20260503185637 70 201 4.0 6.0 0.00 0.00 0.00 39 1010.9
20260503185132 70 203 4.0 6.0 0.00 0.00 0.00 40 1010.8
20260503184634 69 206 4.0 6.0 0.00 0.00 0.00 39 1010.8
20260503184133 69 206 5.0 7.0 0.00 0.00 0.00 40 1010.8
20260503183633 70 213 5.0 7.0 0.00 0.00 0.00 40 1010.7
20260503183132 70 201 5.0 5.0 0.00 0.00 0.00 41 1010.7
20260503182634 71 214 3.0 5.0 0.00 0.00 0.00 40 1010.7
20260503182139 71 213 4.0 4.0 0.00 0.00 0.00 40 1010.7
20260503181634 71 213 3.0 5.0 0.00 0.00 0.00 39 1010.5
20260503181132 72 213 4.0 5.0 0.00 0.00 0.00 38 1010.5
20260503180709 73 213 3.0 7.0 0.00 0.00 0.00 36 1010.4
20260503180653 73 213 3.0 5.0 0.00 0.00 0.00 38 1010.5
20260503175922 74 213 4.0 7.0 0.00 0.00 0.00 36 1010.4
20260503175133 74 204 4.0 5.0 0.00 0.00 0.00 36 1010.4
20260503174917 74 215 4.0 6.0 0.00 0.00 0.00 35 1010.4
20260503174133 75 213 4.0 6.0 0.00 0.00 0.00 34 1010.4
20260503173631 75 214 4.0 5.0 0.00 0.00 0.00 33 1010.5
20260503173132 76 206 4.0 5.0 0.00 0.00 0.00 33 1010.5
20260503172632 76 218 3.0 6.0 0.00 0.00 0.00 32 1010.5
20260503172133 76 218 4.0 6.0 0.00 0.00 0.00 32 1010.5
20260503171633 76 221 5.0 6.0 0.00 0.00 0.00 31 1010.5
20260503171133 77 211 4.0 7.0 0.00 0.00 0.00 31 1010.5
20260503170632 77 220 5.0 9.0 0.00 0.00 0.00 29 1010.5
20260503170130 78 220 7.0 10.0 0.00 0.00 0.00 29 1010.4
20260503160133 80 162 5.0 9.0 0.00 0.00 0.00 28 1010.5
20260503150633 81 194 6.0 12.0 0.00 0.00 0.00 28 1011.0
20260503150132 81 193 7.0 13.0 0.00 0.00 0.00 28 1011.1
20260503140132 82 184 11.0 14.0 0.00 0.00 0.00 28 1011.5
20260503131131 82 259 7.0 16.0 0.00 0.00 0.00 30 1012.0
20260503130630 82 189 10.0 15.0 0.00 0.00 0.00 28 1012.2
20260503130132 83 187 5.0 14.0 0.00 0.00 0.00 27 1012.2
20260503120114 82 203 6.0 13.0 0.00 0.00 0.00 29 1012.7
20260503110602 82 220 9.0 16.0 0.00 0.00 0.00 29 1013.2
20260503081606 77 241 10.0 16.0 0.00 0.00 0.00 33 1014.2
20260503081551 77 197 16.0 22.0 0.00 0.00 0.00 32 1014.2
20260503080532 77 200 13.0 16.0 0.00 0.00 0.00 33 1014.1
20260503072525 73 198 11.0 19.0 0.00 0.00 0.00 38 1014.1
20260503072027 72 206 12.0 19.0 0.00 0.00 0.00 39 1014.1
20260503071529 72 207 10.0 16.0 0.00 0.00 0.00 40 1014.1
20260503071026 71 197 9.0 16.0 0.00 0.00 0.00 40 1014.1
20260503070528 71 177 13.0 16.0 0.00 0.00 0.00 41 1014.1
20260503054931 65 194 9.0 15.0 0.00 0.00 0.00 46 1014.2
20260503054426 64 213 8.0 14.0 0.00 0.00 0.00 47 1014.2
20260503053923 64 222 9.0 17.0 0.00 0.00 0.00 46 1014.1
20260503053425 64 244 13.0 17.0 0.00 0.00 0.00 46 1014.2
20260503052925 64 201 11.0 17.0 0.00 0.00 0.00 47 1014.2
20260503052424 64 214 11.0 17.0 0.00 0.00 0.00 47 1014.2
20260503052007 63 225 10.0 14.0 0.00 0.00 0.00 47 1014.3
20260503051949 64 183 10.0 14.0 0.00 0.00 0.00 47 1014.2
20260503051207 63 182 10.0 16.0 0.00 0.00 0.00 48 1014.3
20260503050424 63 215 8.0 18.0 0.00 0.00 0.00 48 1014.3
20260503045924 62 197 12.0 18.0 0.00 0.00 0.00 49 1014.3
20260503045423 61 207 13.0 14.0 0.00 0.00 0.00 51 1014.2
20260503044924 60 208 10.0 14.0 0.00 0.00 0.00 54 1014.3
20260503044423 57 193 8.0 13.0 0.00 0.00 0.00 60 1014.2
20260503043924 55 215 7.0 12.0 0.00 0.00 0.00 63 1014.3
20260503043701 51 200 6.0 12.0 0.00 0.00 0.00 70 1014.2
20260503042924 50 211 3.0 10.0 0.00 0.00 0.00 71 1014.3
20260503042423 49 165 2.0 5.0 0.00 0.00 0.00 71 1014.2
20260503042216 49 159 2.0 4.0 0.00 0.00 0.00 71 1014.3
20260503041422 49 159 2.0 4.0 0.00 0.00 0.00 71 1014.3
20260503041212 49 159 3.0 3.0 0.00 0.00 0.00 71 1014.3
20260503040421 49 159 3.0 4.0 0.00 0.00 0.00 71 1014.5
20260503040009 49 160 2.0 4.0 0.00 0.00 0.00 71 1014.4
20260503035953 49 160 2.0 4.0 0.00 0.00 0.00 71 1014.4
20260503034923 48 160 2.0 4.0 0.00 0.00 0.00 71 1014.4
20260503034421 48 160 3.0 4.0 0.00 0.00 0.00 71 1014.4
20260503033921 48 162 3.0 3.0 0.00 0.00 0.00 71 1014.4
20260503033422 48 163 2.0 4.0 0.00 0.00 0.00 71 1014.3
20260503032923 48 163 3.0 4.0 0.00 0.00 0.00 72 1014.3
20260503032422 48 163 2.0 4.0 0.00 0.00 0.00 72 1014.4
20260503031921 48 163 3.0 3.0 0.00 0.00 0.00 72 1014.4
20260503031718 48 163 2.0 4.0 0.00 0.00 0.00 72 1014.3
20260503030921 48 163 2.0 4.0 0.00 0.00 0.00 72 1014.3
20260503030422 48 163 2.0 3.0 0.00 0.00 0.00 72 1014.4
20260503030211 48 163 2.0 3.0 0.00 0.00 0.00 72 1014.4
20260503025422 48 163 2.0 2.0 0.00 0.00 0.00 72 1014.4
20260503024921 48 163 2.0 3.0 0.00 0.00 0.00 72 1014.4
20260503024421 48 163 2.0 3.0 0.00 0.00 0.00 72 1014.4
20260503023920 48 163 2.0 3.0 0.00 0.00 0.00 72 1014.5
20260503023421 48 167 2.0 3.0 0.00 0.00 0.00 72 1014.5
20260503022921 48 166 2.0 4.0 0.00 0.00 0.00 72 1014.5
20260503022419 48 167 3.0 4.0 0.00 0.00 0.00 72 1014.5
20260503021920 49 167 2.0 4.0 0.00 0.00 0.00 72 1014.5
20260503021422 49 167 2.0 4.0 0.00 0.00 0.00 72 1014.5
20260503020923 49 167 2.0 3.0 0.00 0.00 0.00 72 1014.6
20260503020422 49 167 2.0 3.0 0.00 0.00 0.00 71 1014.6
20260503015921 49 167 1.0 2.0 0.00 0.00 0.00 71 1014.7
20260503015421 49 167 1.0 2.0 0.00 0.00 0.00 70 1014.7
20260503014919 50 167 1.0 2.0 0.00 0.00 0.00 70 1014.7
20260503014420 50 167 1.0 2.0 0.00 0.00 0.00 69 1014.8
20260503013920 50 167 0.0 1.0 0.00 0.00 0.00 68 1014.8
20260503013420 51 167 0.0 2.0 0.00 0.00 0.00 68 1014.8
20260503013211 51 167 0.0 2.0 0.00 0.00 0.00 67 1014.8
20260503012420 51 167 1.0 2.0 0.00 0.00 0.00 66 1014.9
20260503011920 52 167 1.0 2.0 0.00 0.00 0.00 66 1014.8
20260503011419 52 167 1.0 2.0 0.00 0.00 0.00 65 1014.9
20260503011158 53 167 1.0 2.0 0.00 0.00 0.00 64 1014.9
20260503010419 53 167 0.0 2.0 0.00 0.00 0.00 63 1014.9
20260503010207 53 167 1.0 3.0 0.00 0.00 0.00 62 1014.9
20260503005709 53 167 1.0 3.0 0.00 0.00 0.00 61 1015.0
20260503004919 53 167 2.0 4.0 0.00 0.00 0.00 61 1014.9
20260503004703 53 167 2.0 4.0 0.00 0.00 0.00 61 1014.9
20260503003950 53 167 2.0 5.0 0.00 0.00 0.00 62 1015.1
20260503003941 53 167 2.0 3.0 0.00 0.00 0.00 61 1015.1
20260503002919 52 167 1.0 5.0 0.00 0.00 0.00 62 1015.2
20260503002709 51 170 2.0 5.0 0.00 0.00 0.00 64 1015.1
20260503002208 51 172 2.0 5.0 0.00 0.00 0.00 66 1015.2
20260503001418 50 172 3.0 4.0 0.00 0.00 0.00 68 1015.2
20260503000918 50 173 2.0 3.0 0.00 0.00 0.00 71 1015.2
20260503000418 50 173 2.0 3.0 0.00 0.00 0.00 72 1015.3
20260502235917 50 174 1.0 2.0 0.00 0.00 0.00 73 1015.4
20260502235417 50 174 1.0 2.0 0.00 0.00 0.00 73 1015.5
20260502234918 50 174 0.0 2.0 0.00 0.00 0.00 72 1015.5
20260502234417 50 174 1.0 1.0 0.00 0.00 0.00 72 1015.5
20260502233918 51 174 0.0 0.0 0.00 0.00 0.00 72 1015.5
20260502233417 51 174 0.0 0.0 0.00 0.00 0.00 71 1015.6
20260502233201 51 174 0.0 0.0 0.00 0.00 0.00 71 1015.6
20260502232704 51 174 0.0 0.0 0.00 0.00 0.00 71 1015.7
20260502231916 52 174 0.0 0.0 0.00 0.00 0.00 71 1015.8
20260502231418 52 174 0.0 1.0 0.00 0.00 0.00 71 1015.8
20260502230918 52 174 0.0 4.0 0.00 0.00 0.00 71 1015.8
20260502230417 52 174 1.0 4.0 0.00 0.00 0.00 71 1015.9
20260502225935 52 174 3.0 4.0 0.00 0.00 0.00 71 1015.7
20260502225418 52 280 2.0 3.0 0.00 0.00 0.00 71 1015.9
20260502224918 53 280 1.0 2.0 0.00 0.00 0.00 71 1015.9
20260502224419 53 280 0.0 3.0 0.00 0.00 0.00 70 1016.0
20260502223917 53 280 2.0 9.0 0.00 0.00 0.00 70 1016.2
20260502223418 53 270 7.0 9.0 0.00 0.00 0.00 69 1016.4
20260502222916 53 158 0.0 1.0 0.00 0.00 0.00 68 1016.2
20260502222415 53 158 1.0 2.0 0.00 0.00 0.00 68 1016.2
20260502221915 54 158 2.0 2.0 0.00 0.00 0.00 68 1016.2
20260502221434 54 158 1.0 2.0 0.00 0.00 0.00 67 1016.1
20260502220914 54 158 1.0 2.0 0.00 0.00 0.00 67 1016.2
20260502220414 55 158 1.0 2.0 0.00 0.00 0.00 66 1016.1
20260502215916 55 158 1.0 2.0 0.00 0.00 0.00 66 1016.2
20260502215415 55 158 1.0 2.0 0.00 0.00 0.00 65 1016.3
20260502214915 55 158 1.0 2.0 0.00 0.00 0.00 65 1016.2
20260502214413 55 158 1.0 2.0 0.00 0.00 0.00 65 1016.3